Regional Weather Roundup
Issued by NWS

Home | Current Version | Previous Version | Text Only | Print | Product List | Glossary Off
Versions: 1 2 3 4 5 6 7 8 9 10 11 12 13 14 15 16 17 18 19 20 21 22 23 24 25 26 27 28 29 30 31 32 33 34 35 36 37 38 39 40 41 42 43 44 45 46 47 48 49 50

000
ASUS43 KOAX 240902
RWRNE

WEATHER ROUNDUP FOR NEBRASKA
NATIONAL WEATHER SERVICE OMAHA NE
400 AM CDT TUE APR 24 2018

NOTES: SATELLITE DATA IS BEING USED TO AUGMENT CLOUD COVER ABOVE
       12000 FEET.
       "FAIR" INDICATES FEW OR NO CLOUDS BELOW 12,000 FEET WITH NO
       SIGNIFICANT WEATHER AND/OR OBSTRUCTIONS TO VISIBILITY.


NEZ001>004-019>022-054>056-241000-
NEBRASKA PANHANDLE

CITY           SKY/WX    TMP DP  RH WIND       PRES   REMARKS
SCOTTSBLUFF    CLOUDY    38  33  82 NW17      30.32R WCI  28
ALLIANCE       CLOUDY    37  34  89 N15       30.27R WCI  28
CHADRON        CLOUDY    37  33  85 NW20G28   30.32R WCI  27
GORDON         CLOUDY    38  35  87 NW20G28   30.27R WCI  29
KIMBALL        DRIZZLE   35  32  89 NW23G29   30.30S WCI  23
SIDNEY         CLOUDY    36  33  89 NW23G33   30.29R WCI  24
$$

NEZ057>060-069>072-079>082-241000-
SOUTHWEST NEBRASKA

CITY           SKY/WX    TMP DP  RH WIND       PRES   REMARKS
NORTH PLATTE   CLOUDY    51  45  79 N10       30.18R
IMPERIAL       CLOUDY    41  39  93 NW21G32   30.21R
LEXINGTON      MOCLDY    46  40  82 NW10      30.14R
MCCOOK         CLOUDY    48  42  80 SW7       30.13F
OGALLALA       LGT RAIN  42  39  88 NW29G35   30.21F
$$

NEZ005>010-023>029-035>040-094-241000-
NORTH CENTRAL NEBRASKA

CITY           SKY/WX    TMP DP  RH WIND       PRES   REMARKS
VALENTINE      CLOUDY    42  39  89 NW20G29   30.19R
AINSWORTH      CLOUDY    45  43  94 NW18G25   30.17R
BROKEN BOW     CLOUDY    54  45  71 NW10      30.13R
O`NEILL        CLOUDY    56  39  52 S3        30.14R
ORD            CLOUDY    45  41  86 CALM      30.10S
THEDFORD       CLOUDY    45  42  89 NW16G22   30.20R
$$

NEZ041-046>049-061>064-073>077-083>087-241000-
SOUTH CENTRAL NEBRASKA

CITY           SKY/WX    TMP DP  RH WIND       PRES   REMARKS
GRAND ISLAND   CLOUDY    48  40  73 SE5       30.11F
AURORA         CLOUDY    47  37  68 CALM      30.11F
HASTINGS       CLOUDY    44  37  76 CALM      30.11F
HEBRON         CLEAR     41  36  81 CALM      30.13R
HOLDREGE       PTCLDY    45  40  80 CALM      30.11F
KEARNEY        CLOUDY    49  39  68 CALM      30.11F
$$

NEZ011>018-030>034-042>045-241000-
NORTHEAST NEBRASKA

CITY           SKY/WX    TMP DP  RH WIND       PRES   REMARKS
NORFOLK        CLOUDY    51  40  65 SE7       30.11F
ALBION         CLOUDY    50  37  59 SE5       30.11F
BLAIR          CLOUDY    50  39  65 NE7       30.12S
COLUMBUS       CLOUDY    51  37  58 E6        30.13F
FREMONT        CLOUDY    47  34  61 CALM      30.13F
TEKAMAH        MOCLDY    43  37  79 N7        30.13F
WAYNE          CLOUDY    43  41  93 CALM      30.13F
$$

NEZ050>053-065>068-078-088>093-241000-
SOUTHEAST NEBRASKA

CITY           SKY/WX    TMP DP  RH WIND       PRES   REMARKS
LINCOLN        CLEAR     39  32  76 CALM      30.13F
OMAHA EPPLEY   PTCLDY    45  37  73 N7        30.12S
BEATRICE       CLEAR     41  32  72 CALM      30.12S
FALLS CITY     CLOUDY    43  31  62 NW6       30.10S
NEBRASKA CITY  CLEAR     48  32  53 N6        30.12S
PLATTSMOUTH    PTCLDY    49  34  56 CALM      30.12F
$$

NEZ044-045-051>053-067-241000-
OMAHA AREA

CITY           SKY/WX    TMP DP  RH WIND       PRES   REMARKS
OMAHA EPPLEY   PTCLDY    45  37  73 N7        30.12S
BLAIR          CLOUDY    50  39  65 NE7       30.12S
FREMONT        CLOUDY    47  34  61 CALM      30.13F
MILLARD        CLEAR     48  37  64 CALM      30.13S
OFFUTT AFB     CLEAR     45  37  73 CALM      30.11S
PLATTSMOUTH    PTCLDY    49  34  56 CALM      30.12F
WAHOO          FAIR      46  30  53 NW3       30.12F
$$




USA.gov is the U.S. government's official web portal to all federal, state and local government web resources and services.